Theta_e
327 319 322 316 302 298 295 300 311 309 311 316 321 320 318 318 316 308 329 334 335 338 341 343 344 344 341 339 338 339 338 337 337 337 336 336 335 335 335 335 334 335 335 335 334 334 334 333 332
324 321 317 308 296 291 292 299 306 312 316 319 321 320 318 315 324 324 328 334 335 339 340 341 341 342 339 338 339 340 337 336 336 336 336 335 335 334 334 334 334 334 334 334 334 335 335 334 334
321 320 309 301 296 290 293 298 310 315 318 318 318 322 319 316 323 324 333 334 335 338 338 339 341 342 341 340 340 339 339 336 336 335 335 334 334 334 334 335 334 333 333 335 335 335 335 335 335
314 311 308 297 293 299 298 299 314 315 316 320 320 315 322 325 323 329 335 334 333 334 337 339 342 343 342 341 340 339 337 335 335 334 334 334 334 334 334 334 335 335 335 336 336 336 335 335 335
311 307 298 293 296 300 301 312 316 313 314 318 319 314 319 328 331 334 334 334 331 334 337 340 341 342 341 340 339 339 337 335 334 334 334 334 334 334 334 333 334 335 336 336 336 336 336 336 336
304 304 294 291 295 301 302 308 316 315 315 318 317 316 321 329 324 325 331 330 334 334 337 338 335 338 339 339 339 338 337 335 335 335 334 334 333 333 333 333 334 335 336 336 336 336 335 335 336
302 298 295 296 297 300 302 307 312 313 316 316 321 314 322 325 321 322 332 332 332 335 335 336 336 335 333 335 336 337 337 337 336 335 334 333 333 332 332 331 332 334 335 336 335 335 335 335 335
305 301 296 297 298 299 305 306 315 315 317 325 322 312 317 324 321 323 332 332 332 334 334 333 334 335 332 331 330 331 334 334 334 333 331 329 329 330 330 329 332 332 334 334 334 334 335 335 334
309 296 295 298 300 303 308 306 315 322 319 322 324 320 324 324 319 318 327 330 330 332 334 331 331 331 329 329 327 328 329 330 329 329 327 327 331 331 330 327 330 332 333 334 334 335 336 333 331
304 296 298 304 306 306 308 305 316 316 317 319 319 323 327 320 316 316 322 324 322 324 328 330 328 328 327 330 327 329 330 329 329 331 333 333 331 329 331 324 327 329 328 334 335 336 333 330 330
303 299 303 305 308 309 308 308 315 315 311 318 317 320 322 316 317 316 316 318 320 321 324 322 323 328 329 327 327 328 328 328 330 327 328 330 330 333 329 327 328 327 324 331 331 331 328 317 317
302 305 306 308 310 309 307 311 313 315 314 322 322 323 319 317 318 318 318 316 318 319 320 324 326 330 330 329 325 324 328 325 323 321 324 327 330 324 321 317 316 315 317 323 318 312 311 307 309
305 306 308 308 307 308 310 309 313 312 319 324 324 322 318 318 318 318 319 318 317 318 321 325 325 328 328 324 326 323 319 318 316 316 317 322 321 317 314 314 311 306 308 309 307 304 304 302 304
307 306 306 307 307 307 307 308 314 315 321 320 321 320 320 318 318 317 318 316 318 320 320 324 325 325 327 323 320 317 316 313 311 311 312 314 315 315 311 307 305 303 303 304 302 301 301 300 300
306 301 304 305 306 305 309 305 307 317 320 318 319 319 320 320 320 317 318 319 320 319 321 323 324 324 318 314 312 310 310 309 308 307 308 309 310 307 305 304 302 300 300 301 301 300 299 298 298
300 300 291 300 303 306 307 298 306 316 318 317 318 314 313 312 308 309 310 312 313 315 317 320 326 319 313 310 308 306 306 305 305 305 305 306 306 306 303 300 299 299 298 298 299 297 296 295 295
296 289 291 295 302 301 302 298 308 313 316 310 309 309 307 304 304 305 308 309 313 315 316 319 316 311 308 307 306 305 304 304 303 303 302 301 302 301 300 298 297 297 297 296 297 297 295 292 293
287 289 291 291 295 295 297 300 306 311 312 308 307 306 304 304 302 304 307 307 310 313 318 317 313 309 306 304 304 303 302 302 301 300 299 299 299 299 297 297 296 296 295 294 294 295 294 292 291
292 290 289 294 294 292 293 294 303 308 310 306 305 303 303 303 302 304 306 308 308 310 316 313 309 307 305 303 302 301 299 299 298 298 297 297 297 297 296 295 295 294 293 293 293 293 292 291 292
291 288 287 289 293 291 290 290 294 305 307 306 305 304 303 299 300 302 305 304 304 305 312 310 307 305 305 304 300 300 298 297 296 296 295 295 295 295 295 294 293 293 292 292 291 290 291 290 290
288 287 286 286 289 291 289 288 294 302 306 306 306 305 302 299 298 300 302 301 302 303 307 306 305 305 302 301 300 298 297 296 295 294 293 294 294 294 294 293 292 291 291 290 290 289 289 287 288
284 291 290 287 286 283 289 280 286 292 300 302 303 302 299 299 300 300 298 298 299 299 302 302 301 300 300 300 298 297 294 293 294 293 292 292 293 292 293 292 291 290 290 289 290 289 288 287 284
286 293 291 289 286 284 284 283 287 294 291 299 302 301 299 299 298 299 297 296 297 297 299 301 301 301 302 300 301 299 294 294 293 292 291 291 291 291 291 291 290 289 289 288 288 287 287 286 285
292 289 289 288 286 279 284 284 284 291 293 296 301 300 299 297 297 296 295 295 295 296 297 299 300 300 301 300 299 296 294 293 291 291 290 290 290 289 289 289 288 288 288 287 286 286 285 284 284
290 286 278 277 277 276 286 283 285 295 298 299 298 297 296 295 294 292 292 293 294 294 295 296 296 296 298 298 297 296 294 293 291 291 290 289 288 287 287 288 287 286 286 286 285 285 284 284 282
286 286 280 274 275 278 286 280 286 295 298 300 300 299 296 294 294 293 293 293 293 294 295 295 295 294 295 294 293 293 293 293 292 291 290 288 288 287 287 287 286 286 286 285 285 284 284 283 282
283 281 287 281 282 281 283 287 292 292 296 299 298 295 293 294 294 294 294 294 294 294 294 293 293 293 293 293 292 291 291 290 289 289 288 287 288 289 287 287 286 286 285 285 284 283 282 282 281
286 289 279 282 276 274 280 282 283 287 292 296 295 291 292 294 293 293 293 293 293 293 293 292 292 291 291 291 290 289 289 289 288 287 287 286 286 287 286 286 285 285 284 284 283 283 282 281 281
283 281 284 285 283 278 276 280 286 289 294 293 294 293 292 292 292 292 292 292 291 290 290 290 290 289 289 289 288 288 288 288 288 287 286 286 286 285 285 285 285 284 283 283 282 281 281 281 280
288 284 284 275 275 281 280 281 286 287 289 296 293 292 291 291 292 292 291 289 289 289 288 288 288 287 288 288 288 287 287 287 286 286 286 285 284 284 284 283 283 282 281 281 280 280 280 280 280
Wind_Speed
8 7 1 4 4 4 4 7 3 5 5 2 3 12 10 6 3 4 4 13 19 14 13 14 17 16 16 16 15 14 15 15 15 14 14 14 14 14 13 13 12 12 11 12 11 11 11 11 11
5 6 3 1 4 2 7 7 7 6 8 10 13 8 6 4 3 8 8 14 17 14 12 13 16 17 17 17 16 14 15 14 14 14 14 13 13 12 12 12 11 11 11 11 10 11 10 9 9
5 4 2 3 4 6 6 3 8 8 10 6 7 7 6 6 5 7 13 14 15 14 11 11 15 17 17 17 16 15 14 14 14 13 13 12 11 11 11 10 9 10 9 10 10 9 9 9 9
3 5 4 1 6 10 9 2 7 9 4 8 9 9 4 4 8 10 17 16 15 13 12 11 15 16 17 16 16 15 15 15 13 12 11 10 10 9 9 8 8 8 8 9 8 8 8 8 8
4 3 2 4 8 9 6 4 7 7 7 8 7 4 5 8 8 20 18 15 14 12 12 10 14 16 16 15 16 14 15 14 13 12 10 9 8 7 7 6 6 7 7 7 7 7 7 7 7
3 2 2 4 10 16 5 8 10 5 7 7 10 7 3 1 12 14 12 12 15 14 11 9 11 14 15 14 14 13 13 13 12 11 10 8 6 6 5 5 5 6 7 8 8 8 7 7 7
5 3 4 6 11 17 12 4 7 9 7 4 15 8 3 2 8 9 15 16 16 14 11 9 11 11 11 11 10 11 10 10 9 9 7 6 5 4 3 2 3 5 6 6 7 6 7 8 8
1 5 4 5 9 16 14 5 9 8 2 14 8 10 10 14 10 11 14 15 14 13 13 10 10 9 7 6 9 10 10 9 8 6 5 5 6 5 4 3 1 3 4 4 5 6 8 9 9
1 2 5 5 6 11 18 8 3 6 8 5 6 10 16 16 11 10 11 12 11 12 13 11 10 9 8 7 7 8 9 7 7 5 6 3 3 3 3 3 3 4 6 6 4 6 7 7 6
6 5 8 8 12 15 18 7 8 7 7 4 5 10 22 18 14 14 13 14 10 10 11 12 11 11 9 7 7 5 5 3 3 2 2 1 3 3 4 6 8 8 7 8 7 7 7 6 3
5 9 4 13 15 15 16 20 8 14 4 9 19 24 17 16 13 11 10 14 13 9 8 8 9 10 9 6 5 3 3 3 3 6 5 4 4 5 4 4 4 4 7 3 4 4 4 7 5
12 9 8 16 21 12 13 14 7 4 7 17 20 27 16 19 16 13 12 12 13 8 8 5 8 10 6 6 4 4 4 4 4 4 6 4 4 5 4 3 3 4 3 5 5 4 5 7 6
17 9 11 10 18 18 12 12 9 1 12 22 22 17 17 16 13 9 9 8 10 10 8 6 8 9 8 6 5 6 5 5 4 4 6 4 5 4 3 5 5 5 5 5 5 5 5 6 7
8 8 13 12 18 15 16 7 3 3 16 19 22 19 17 15 15 11 12 9 10 9 8 8 7 7 8 8 7 6 6 6 5 5 5 6 5 4 6 6 6 6 5 4 5 5 5 5 5
6 10 14 22 17 12 3 6 5 7 13 19 18 18 17 15 15 12 13 14 13 6 7 8 7 11 12 10 8 6 6 6 6 5 6 5 6 7 6 6 6 5 5 7 6 6 6 6 6
5 9 17 17 23 14 10 22 4 10 18 18 18 13 13 10 9 9 10 10 9 9 8 6 10 12 11 10 7 6 6 5 5 5 6 7 8 8 7 6 5 5 5 5 5 4 4 5 5
8 9 8 11 16 12 10 9 12 9 17 17 12 12 12 9 7 6 8 8 8 8 9 9 11 13 13 11 9 8 8 6 5 5 6 8 8 8 7 6 5 5 5 5 4 5 4 4 4
12 7 10 12 5 8 14 18 15 15 17 17 15 14 12 10 8 6 7 7 7 7 8 11 9 12 12 10 9 7 7 7 6 6 6 7 6 8 6 6 6 5 5 6 4 5 4 3 3
9 6 11 6 6 3 8 12 15 17 15 16 14 14 14 11 9 8 6 8 8 6 8 12 13 12 10 9 8 6 5 6 6 6 7 7 6 7 7 5 6 6 6 5 6 2 6 8 6
16 14 8 3 0 6 4 16 11 17 19 20 20 15 16 12 13 10 9 7 5 5 7 10 11 11 8 7 6 5 7 6 6 6 6 6 7 6 7 6 6 6 6 8 7 6 3 4 7
13 13 6 1 2 2 4 6 6 14 10 14 14 13 14 15 13 13 11 8 7 7 9 10 10 11 8 10 10 9 9 7 5 5 4 5 6 7 7 8 7 6 5 6 6 5 5 3 4
13 10 14 5 4 3 2 4 2 13 10 15 16 16 18 16 13 13 12 9 8 6 8 10 10 10 10 10 10 11 8 8 4 4 4 5 6 7 7 7 7 7 5 6 5 6 5 3 4
8 7 11 8 9 4 4 4 1 8 9 11 18 19 17 17 17 13 14 11 8 7 8 10 11 10 10 10 9 7 7 8 7 6 8 6 5 7 7 6 6 7 5 5 6 6 6 5 3
5 2 5 5 3 8 11 7 5 7 11 8 12 16 18 18 14 13 12 11 11 7 8 10 13 11 8 7 8 11 13 10 9 8 6 5 4 5 6 7 6 6 5 5 5 5 7 6 5
2 4 4 7 7 6 17 8 13 9 8 13 11 14 16 16 15 12 16 12 11 9 9 10 13 12 10 10 7 6 10 9 10 9 6 7 4 3 5 6 5 4 5 5 5 5 6 5 4
7 5 5 4 5 4 10 9 6 3 3 10 16 15 15 15 13 12 11 13 13 9 8 12 11 14 10 13 10 5 8 6 5 7 6 6 5 5 5 6 5 5 6 5 5 3 4 5 4
5 6 1 6 3 3 5 2 3 1 5 5 17 17 16 14 14 13 11 11 14 11 8 11 14 11 14 10 9 7 7 8 7 7 7 5 6 6 6 6 6 5 6 5 5 4 4 3 2
7 2 2 1 5 1 2 3 1 5 7 7 16 17 15 14 13 12 14 9 9 9 8 8 11 13 12 10 9 8 8 8 8 6 7 7 6 6 6 5 6 5 5 4 4 2 1 2 1
2 3 4 4 3 3 3 2 2 6 9 15 16 16 16 15 13 11 12 12 12 8 9 8 8 11 10 8 9 9 8 8 8 6 6 6 6 6 5 6 5 5 4 3 2 1 2 0 1
4 5 6 3 3 4 3 2 2 4 1 7 11 14 13 12 12 10 12 12 12 13 9 9 10 9 9 8 8 8 9 8 7 7 6 6 6 5 5 5 5 4 3 2 2 2 1 1 3
Wind_Direction
326 315 113 344 59 68 245 254 228 120 66 102 98 87 105 40 73 180 140 142 131 138 137 132 125 123 123 118 114 111 110 109 107 105 99 95 92 89 85 79 75 74 72 69 62 57 54 47 41
319 323 46 322 114 139 264 238 243 150 138 113 87 117 62 77 80 117 105 137 134 138 138 135 131 129 126 122 119 117 115 112 108 103 99 95 91 86 81 76 70 66 62 60 57 54 50 47 41
301 159 73 167 182 187 221 253 178 139 140 119 101 51 108 135 128 143 134 135 133 138 133 132 132 130 128 127 124 120 116 111 107 104 103 101 96 91 85 80 73 68 61 54 51 48 44 37 33
347 359 336 142 248 252 217 35 265 129 102 71 104 75 55 169 152 136 147 144 141 135 128 137 135 131 129 130 128 127 126 120 115 110 105 98 92 88 83 78 71 62 48 43 43 41 37 29 21
24 68 279 305 271 259 293 189 200 142 138 126 114 118 84 147 130 142 153 150 132 124 130 139 140 133 133 134 133 129 126 124 121 114 105 99 95 86 77 71 64 57 49 40 34 29 23 15 7
11 102 300 251 264 275 273 246 152 154 136 150 91 98 120 33 132 151 153 137 130 129 131 143 139 133 135 136 133 131 128 127 123 118 113 108 96 94 88 70 56 40 30 24 21 16 9 1 354
147 119 236 272 273 282 267 227 167 158 153 140 135 99 129 124 158 131 125 122 126 127 125 129 133 132 124 128 129 125 122 117 115 118 125 132 144 148 123 99 48 30 23 17 13 3 357 356 351
220 133 256 246 270 278 278 238 181 159 30 136 138 149 164 172 164 119 126 126 130 126 128 129 133 131 122 127 123 120 120 121 127 140 160 181 190 201 191 163 93 33 26 5 358 358 359 2 341
189 239 200 243 263 269 279 264 77 56 92 30 330 159 147 151 148 128 134 136 130 133 139 140 138 136 133 129 132 129 136 148 159 175 215 252 256 220 227 168 82 30 23 345 348 353 0 7 22
176 202 220 193 246 263 289 260 161 110 139 71 53 98 140 147 153 148 153 144 135 136 154 154 151 152 149 151 151 152 150 162 199 184 188 69 44 105 79 67 43 44 26 49 26 46 32 33 23
243 231 241 264 256 259 284 308 226 142 170 168 150 146 142 147 144 142 140 142 134 136 134 148 157 155 157 153 156 160 154 171 67 45 31 26 51 63 57 50 30 21 16 13 41 45 44 37 25
258 263 260 262 269 278 278 295 226 161 186 146 161 151 142 145 148 140 137 136 138 137 148 131 147 151 150 143 153 153 98 73 71 47 30 29 58 56 56 67 43 27 8 33 39 44 39 33 26
251 272 281 304 308 294 279 287 246 16 126 135 146 142 146 145 148 135 141 129 140 136 138 148 134 140 149 125 90 97 92 84 78 57 40 50 71 72 69 47 44 31 27 34 41 34 33 28 14
303 285 275 290 290 296 272 245 266 303 130 138 150 153 151 153 159 150 159 148 144 147 156 163 155 151 91 91 91 89 92 89 76 68 57 53 68 58 63 58 45 36 24 26 41 43 34 27 21
240 238 282 272 272 288 269 254 211 157 146 145 157 157 161 163 173 169 165 151 149 149 166 172 163 109 104 101 97 91 88 85 85 76 59 53 62 69 67 61 52 38 27 33 36 35 33 25 12
227 228 242 263 266 271 222 250 185 175 155 153 159 144 134 125 111 113 116 110 120 125 122 104 122 115 103 102 95 92 93 93 82 76 66 57 68 71 68 64 50 34 35 39 43 33 32 17 14
240 223 226 257 251 262 260 237 181 213 161 141 155 152 134 121 98 95 116 126 130 137 134 114 114 109 109 102 101 97 98 90 78 71 65 56 66 70 75 71 55 48 47 38 36 40 38 17 0
234 245 224 225 22 341 283 272 179 186 170 164 161 158 142 158 148 124 117 118 131 112 123 119 115 118 113 110 107 100 89 77 69 65 61 61 64 71 71 64 59 48 51 39 40 61 36 18 347
284 221 272 206 85 84 305 312 203 191 174 163 160 161 151 167 144 134 119 101 97 85 117 130 128 131 133 129 125 115 107 95 80 70 56 50 61 68 71 67 64 55 58 43 30 54 51 25 6
238 255 242 276 158 117 326 300 315 212 187 170 162 169 161 156 154 149 144 109 95 107 117 127 130 136 140 134 122 119 120 96 93 79 66 62 60 63 76 75 66 54 57 46 34 30 41 44 17
240 242 213 311 230 87 305 252 297 236 189 166 165 160 156 164 157 149 141 134 130 124 131 130 136 139 126 124 117 112 108 111 102 81 77 64 69 61 67 73 74 61 60 60 42 33 43 61 27
264 218 220 197 179 236 170 278 255 299 197 175 165 168 163 162 157 152 139 136 148 129 124 119 115 117 119 128 130 136 138 133 114 124 101 80 73 74 66 69 77 72 60 56 53 48 48 61 41
254 187 216 190 185 174 155 253 158 183 282 206 178 174 166 159 157 155 140 137 134 134 132 130 123 115 121 133 146 125 117 113 126 122 111 100 85 84 81 76 70 74 68 62 63 48 58 50 64
270 231 275 194 196 234 185 165 199 190 215 213 190 171 163 150 149 138 122 133 126 132 131 134 129 121 105 92 127 130 129 145 134 130 125 118 97 84 84 86 81 80 77 66 64 62 58 62 55
141 221 227 215 187 227 165 180 244 209 155 190 197 168 152 142 143 146 141 141 130 146 139 136 124 111 110 105 94 119 134 158 141 132 136 128 107 94 91 91 88 87 91 79 71 68 65 56 64
201 220 256 220 180 184 151 209 264 169 151 144 178 177 156 152 149 154 165 153 128 136 140 127 126 117 114 115 111 159 128 139 124 134 135 117 126 120 113 98 96 90 88 87 79 70 73 72 68
262 213 124 311 256 172 169 275 280 131 209 224 177 157 166 161 157 155 162 134 145 150 153 142 132 130 125 134 124 125 126 111 118 108 110 119 120 119 114 116 106 94 85 92 92 83 73 75 81
226 198 55 77 292 86 56 337 256 207 223 125 159 161 163 152 150 151 126 140 128 129 142 132 136 140 138 145 139 136 130 122 112 110 123 116 113 109 115 121 110 104 96 87 94 99 103 85 357
248 250 256 158 250 330 120 252 199 197 196 175 170 165 162 152 149 147 147 142 122 125 123 128 129 131 135 134 133 132 138 121 117 127 118 117 117 123 127 119 122 121 111 96 106 150 178 130 308
255 256 209 145 273 261 247 215 294 264 160 155 153 140 133 136 140 150 131 140 150 132 132 138 136 145 131 132 133 137 121 124 125 120 119 125 120 121 128 125 121 122 140 166 179 236 286 285 288